Ballina Observation History
Time Wind Speed Temp Pressure Rel. Hum Rain
18/04:00am WSW 9-12 kts 15.6°c 1017.3 hPa 82% 6.6mm
18/03:30am WSW 10-14 kts 15.4°c 1017.3 hPa 83% 6.6mm
18/03:00am WSW 9-13 kts 15.2°c 1017.4 hPa 83% 6.6mm
18/02:30am SW 9-13 kts 15.3°c 1017.6 hPa 83% 6.6mm
18/02:00am WSW 10-14 kts 15.6°c 1018.0 hPa 84% 6.6mm
18/01:30am WSW 9-13 kts 15.5°c 1018.1 hPa 86% 6.6mm
18/01:00am WSW 10-14 kts 15.4°c 1018.3 hPa 88% 6.6mm
18/12:30am WSW 9-12 kts 15.3°c 1018.7 hPa 89% 6.6mm
18/12:00am WSW 9-12 kts 15.4°c 1018.7 hPa 91% 6.6mm
Time Wind Speed Temp Pressure Rel. Hum Rain
17/11:30pm WSW 9-12 kts 15.2°c 1018.9 hPa 93% 6.6mm
17/11:00pm W 7-9 kts 14.8°c 1019.3 hPa 94% 6.6mm
17/10:56pm W 7-9 kts 14.9°c 1019.3 hPa 94% 6.6mm
17/10:30pm W 9-12 kts 14.7°c 1019.5 hPa 95% 6.6mm
17/10:04pm WSW 9-11 kts 14.8°c 1019.5 hPa 95% 6.4mm
17/10:00pm WSW 8-11 kts 14.8°c 1019.5 hPa 95% 6.4mm
17/09:53pm WSW 8-11 kts 14.8°c 1019.5 hPa 95% 6.4mm
17/09:30pm WSW 8-10 kts 14.9°c 1019.5 hPa 95% 6.4mm
17/09:16pm W 8-10 kts 14.9°c 1019.6 hPa 96% 6.2mm
17/09:00pm WSW 7-9 kts 14.8°c 1019.5 hPa 95% 6.2mm
17/08:50pm WSW 7-9 kts 14.8°c 1019.7 hPa 95% 5.8mm
17/08:30pm WSW 8-10 kts 14.8°c 1020.0 hPa 95% 5.4mm
17/08:00pm WSW 9-13 kts 14.6°c 1019.9 hPa 95% 4.2mm
17/07:43pm WSW 10-12 kts 14.5°c 1019.9 hPa 95% 4.0mm
17/07:40pm WSW 10-15 kts 14.7°c 1019.8 hPa 95% 4.0mm
17/07:39pm SW 10-15 kts 14.7°c 1019.8 hPa 95% 4.0mm
17/07:30pm SW 10-14 kts 14.8°c 1019.5 hPa 94% 3.8mm
17/07:26pm SW 11-15 kts 14.8°c 1019.6 hPa 94% 3.6mm
17/07:00pm SW 13-17 kts 15.0°c 1019.7 hPa 93% 3.2mm
17/06:30pm SW 13-20 kts 16.0°c 1019.1 hPa 94% 2.8mm
17/06:10pm SW 11-19 kts 16.4°c 1018.8 hPa 94% 2.6mm
17/06:00pm SW 12-20 kts 16.7°c 1018.7 hPa 93% 2.4mm
17/05:52pm SSW 12-18 kts 16.9°c 1018.6 hPa 94% 2.2mm
17/05:30pm SSW 12-19 kts 17.2°c 1018.2 hPa 93% 1.6mm
17/05:00pm SSW 10-18 kts 18.4°c 1018.0 hPa 89% 1.2mm
17/04:38pm SW 8-13 kts 18.9°c 1017.9 hPa 92% 1.2mm
17/04:30pm SW 7-13 kts 18.9°c 1017.8 hPa 92% 1.2mm
17/04:01pm SW 8-12 kts 19.2°c 1017.5 hPa 91% 1.0mm
17/04:00pm SW 8-12 kts 19.2°c 1017.5 hPa 91% 1.0mm
17/03:30pm SW 9-13 kts 19.6°c 1017.3 hPa 90% 0.8mm
17/03:00pm SW 8-11 kts 19.9°c 1017.2 hPa 90% 0.8mm
17/02:30pm WSW 6-9 kts 19.7°c 1017.1 hPa 91% 0.8mm
17/02:10pm SW 6-9 kts 19.9°c 1016.9 hPa 91% 0.8mm
17/02:01pm SW 6-9 kts 20.0°c 1017.0 hPa 90% 0.8mm
17/02:00pm SW 6-9 kts 19.9°c 1016.9 hPa 90% 0.8mm
17/01:40pm WSW 8-11 kts 20.0°c 1017.2 hPa 90% 0.8mm
17/01:37pm WSW 8-11 kts 20.1°c 1017.2 hPa 89% 0.6mm
17/01:30pm WSW 9-12 kts 20.2°c 1017.3 hPa 88% 0.4mm
17/01:25pm WSW 9-12 kts 20.1°c 1017.2 hPa 88% 0.4mm
17/01:00pm SW 9-13 kts 20.1°c 1017.1 hPa 89% 0.4mm
17/12:30pm SW 7-10 kts 20.2°c 1017.6 hPa 87% 0.4mm
17/12:29pm SW 7-10 kts 20.3°c 1017.6 hPa 87% 0.4mm
17/12:00pm SW 8-11 kts 20.2°c 1018.1 hPa 89% 0.4mm
17/11:30am WSW 7-9 kts 19.8°c 1018.7 hPa 90% 0.4mm
17/11:00am SW 5-8 kts 19.5°c 1018.9 hPa 91% 0.4mm
17/10:50am WSW 5-6 kts 19.5°c 1019.1 hPa 91% 0.4mm
17/10:30am WSW 5-7 kts 19.2°c 1019.4 hPa 89% 0.2mm
17/10:00am W 7-9 kts 19.3°c 1019.6 hPa 84% 0.0mm
17/09:30am WSW 7-10 kts 19.5°c 1019.9 hPa 81% 0.0mm
17/09:00am W 7-9 kts 19.4°c 1020.0 hPa 81% 0.0mm
17/08:30am W 7-9 kts 19.6°c 1019.8 hPa 76% 0.0mm
17/08:00am WSW 6-8 kts 19.7°c 1019.6 hPa 75% 0.0mm
17/07:30am W 6-8 kts 18.7°c 1019.5 hPa 79% 0.0mm
17/07:00am W 5-6 kts 18.5°c 1019.5 hPa 81% 0.0mm
17/06:30am WNW 4-5 kts 17.8°c 1019.1 hPa 84% 0.0mm
17/06:00am WSW 4-5 kts 17.7°c 1018.8 hPa 82% 0.0mm
17/05:30am W 4-5 kts 17.7°c 1018.8 hPa 85% 0.0mm
17/05:00am WSW 6-8 kts 18.3°c 1018.7 hPa 80% 0.0mm
17/04:30am W 6-7 kts 18.2°c 1018.9 hPa 81% 0.0mm
17/04:00am WSW 6-7 kts 18.4°c 1018.6 hPa 78% 0.0mm
17/03:30am W 7-9 kts 18.1°c 1018.7 hPa 80% 0.0mm
17/03:00am W 6-8 kts 17.9°c 1018.6 hPa 81% 0.0mm
17/02:30am WSW 6-8 kts 18.2°c 1018.9 hPa 79% 0.0mm
17/02:00am W 6-8 kts 18.2°c 1019.1 hPa 78% 0.0mm
17/01:30am WNW 5-6 kts 18.0°c 1019.4 hPa 82% 0.0mm
17/01:00am W 6-8 kts 17.6°c 1019.6 hPa 84% 0.0mm
17/12:30am WSW 7 kts 17.5°c 1019.7 hPa 83% 0.0mm
17/12:00am WSW 7-8 kts 18.0°c 1020.0 hPa 82% 0.0mm
Time Wind Speed Temp Pressure Rel. Hum Rain
16/11:30pm W 7-9 kts 18.1°c 1020.2 hPa 83% 0.0mm
16/11:00pm SW 5-7 kts 19.1°c 1020.3 hPa 75% 0.0mm
16/10:30pm S 8-13 kts 21.0°c 1020.4 hPa 72% 0.0mm
16/10:00pm S 7-11 kts 20.9°c 1020.6 hPa 71% 0.0mm
16/09:30pm S 9-10 kts 21.0°c 1020.7 hPa 68% 0.0mm
16/09:00pm S 10-14 kts 21.4°c 1020.7 hPa 68% 0.0mm
16/08:30pm S 8-12 kts 21.1°c 1020.6 hPa 67% 0.0mm
16/08:00pm S 10-14 kts 21.6°c 1020.6 hPa 67% 0.0mm
16/07:30pm S 10-14 kts 21.6°c 1020.3 hPa 68% 0.0mm
16/07:00pm SSE 9-13 kts 21.3°c 1019.8 hPa 68% 0.0mm
16/06:30pm SSE 10-15 kts 21.4°c 1019.3 hPa 66% 0.0mm
16/06:00pm SSE 10-13 kts 21.7°c 1019.0 hPa 68% 0.0mm
16/05:30pm SSE 11-16 kts 21.9°c 1018.6 hPa 69% 0.0mm
16/05:00pm SSE 11-16 kts 22.2°c 1018.3 hPa 65% 0.0mm
16/04:30pm SSE 11-17 kts 22.8°c 1018.0 hPa 62% 0.0mm
16/04:00pm SSE 14-19 kts 23.5°c 1017.7 hPa 65% 0.0mm
16/03:30pm SSE 13-17 kts 24.0°c 1017.5 hPa 59% 0.0mm
16/03:00pm SSE 12-19 kts 24.2°c 1017.2 hPa 56% 0.0mm
16/02:30pm S 13-18 kts 24.9°c 1017.0 hPa 56% 0.0mm
16/02:00pm S 14-19 kts 24.9°c 1016.9 hPa 58% 0.0mm
16/01:30pm S 13-17 kts 25.5°c 1017.0 hPa 59% 0.0mm
16/01:00pm SSE 15-19 kts 25.0°c 1016.8 hPa 61% 0.0mm
16/12:30pm SSE 13-19 kts 26.6°c 1017.0 hPa 62% 0.0mm
16/12:00pm S 15-20 kts 25.6°c 1017.2 hPa 62% 0.0mm
16/11:30am S 12-16 kts 25.8°c 1017.3 hPa 62% 0.0mm
16/11:00am SSW 12-17 kts 25.4°c 1017.5 hPa 67% 0.0mm
16/10:30am SSW 11-16 kts 25.2°c 1017.8 hPa 65% 0.0mm
16/10:00am SW 9-14 kts 24.9°c 1017.8 hPa 59% 0.0mm
16/09:30am WSW 7-10 kts 23.8°c 1017.5 hPa 60% 0.0mm
16/09:00am SW 9-12 kts 22.0°c 1017.7 hPa 69% 0.0mm
16/08:30am S 10-14 kts 20.7°c 1017.6 hPa 74% 0.0mm
16/08:00am CALM 0 kts 19.7°c 1016.7 hPa 79% 0.0mm
16/07:30am CALM 0 kts 17.8°c 1016.4 hPa 87% 0.0mm
16/07:00am CALM 0 kts 16.2°c 1016.1 hPa 94% 0.0mm
16/06:30am CALM 0-3 kts 14.5°c 1015.6 hPa 95% 0.0mm
16/06:00am NNW 2-3 kts 14.1°c 1015.4 hPa 95% 0.0mm
16/05:30am CALM 0 kts 14.8°c 1015.1 hPa 95% 0.0mm
16/05:00am W 1-3 kts 14.9°c 1014.9 hPa 95% 0.0mm
16/04:30am CALM 0 kts 14.7°c 1014.7 hPa 95% 0.0mm
16/04:00am W 3-4 kts 14.8°c 1014.5 hPa 95% 0.0mm
16/03:30am CALM 0 kts 14.9°c 1014.5 hPa 94% 0.0mm
16/03:00am N 1-5 kts 15.4°c 1014.3 hPa 94% 0.0mm
16/02:30am CALM 0 kts 15.2°c 1014.4 hPa 93% 0.0mm
16/02:00am CALM 0 kts 15.7°c 1014.5 hPa 93% 0.0mm
16/01:30am CALM 0 kts 15.9°c 1014.4 hPa 93% 0.0mm
16/01:00am CALM 0-3 kts 16.0°c 1014.7 hPa 93% 0.0mm
16/12:30am CALM 0 kts 16.1°c 1014.8 hPa 93% 0.0mm
16/12:00am CALM 0 kts 16.0°c 1015.1 hPa 91% 0.0mm